This is the latest recevied weather packets stored in our database for station/object E24QND-2. If no packets are shown the sender has not sent any weather packets the latest 10 day(s).
| Time | Temp. | Humidity | Pressure | Rain* | Wind** | Luminosity | Snow |
|---|---|---|---|---|---|---|---|
| 1777829978 | 27.22° C | 99% | - | - | - | 0 W/m² | - |
| 1777828754 | 27.22° C | 99% | - | - | - | 0 W/m² | - |
| 1777827529 | 27.22° C | 86% | - | - | - | 0 W/m² | - |
| 1777826305 | 27.22° C | 63% | - | - | - | 0 W/m² | - |
| 1777825080 | 27.78° C | 62% | - | - | - | 0 W/m² | - |
| 1777823856 | 27.22° C | 66% | - | - | - | 0 W/m² | - |
| 1777822631 | 27.78° C | 37% | - | - | - | 0 W/m² | - |
| 1777821406 | 28.89° C | 29% | - | - | - | 0 W/m² | - |
| 1777820182 | 28.33° C | 27% | - | - | - | 0 W/m² | - |
| 1777818957 | 28.89° C | 23% | - | - | - | 0 W/m² | - |
| 1777817733 | 28.89° C | 15% | - | - | - | 0 W/m² | - |
| 1777816508 | 29.44° C | 9% | - | - | - | 0 W/m² | - |
| 1777815284 | 29.44° C | 11% | - | - | - | 0 W/m² | - |
| 1777814059 | 28.89° C | 16% | - | - | - | 0 W/m² | - |
| 1777812834 | 29.44° C | 30% | - | - | - | 0 W/m² | - |
| 1777811610 | 28.89° C | 40% | - | - | - | 0 W/m² | - |
| 1777810385 | 30° C | 24% | - | - | - | 0 W/m² | - |
| 1777809161 | 31.11° C | 7% | - | - | - | 0 W/m² | - |
| 1777807936 | 31.67° C | 1% | - | - | - | 0 W/m² | - |
| 1777806712 | 31.67° C | 2% | - | - | - | 0 W/m² | - |
| 1777805487 | 33.33° C | 1% | - | - | - | 0 W/m² | - |
| 1777804262 | 32.22° C | 1% | - | - | - | 0 W/m² | - |
| 1777803038 | 31.67° C | 1% | - | - | - | 0 W/m² | - |
| 1777801813 | 31.11° C | 4% | - | - | - | 0 W/m² | - |
| 1777800589 | 32.22° C | 1% | - | - | - | 0 W/m² | - |
* Rain since midnight (hover to see other rain measurements)
** Current wind speed in m/s (hover to see current wind gust speed)